Location: Czekanka
(50.4925°N, 19.2643°E)
Time: 03:41:24
(UTC+00:00)

CZ-2C R/B - Visible Passes

Search period start: 12 September 2024 00:00
Search period end: 22 September 2024 00:00
Orbit: 782 x 869 km, 98.3° (Epoch: 11 September)

Date Brightness Start Highest point End Pass type
(mag) Time Alt. Az. Time Alt. Az. Time Alt. Az.
12 Sep 3.3 00:24:47 47° NNW 00:24:47 47° NNW 00:28:26 10° NNW visible
12 Sep 4.6 02:06:16 12° WNW 02:06:16 12° WNW 02:07:08 10° NW visible
12 Sep 5.1 22:24:03 12° ENE 22:24:49 13° NE 22:27:00 10° NNE visible
13 Sep 3.5 00:05:33 45° NNE 00:05:33 45° NNE 00:09:14 10° N visible
13 Sep 4.4 01:47:02 16° WNW 01:47:02 16° WNW 01:48:44 10° NW visible
13 Sep 3.8 23:46:19 38° NNE 23:46:19 38° NNE 23:49:58 10° N visible
14 Sep 4.2 01:27:48 21° NW 01:27:48 21° NW 01:30:01 10° NNW visible
14 Sep 4.2 23:27:05 30° NE 23:27:05 30° NE 23:30:38 10° N visible
15 Sep 4.0 01:08:34 26° NW 01:08:34 26° NW 01:11:07 10° NNW visible
15 Sep 4.5 23:07:51 24° NE 23:07:51 24° NE 23:11:11 10° N visible
16 Sep 3.8 00:49:20 31° NNW 00:49:20 31° NNW 00:52:06 10° NNW visible
16 Sep 4.8 22:48:37 18° NE 22:48:37 18° NE 22:51:38 10° NNE visible
17 Sep 3.8 00:30:06 34° NNW 00:30:06 34° NNW 00:32:59 10° NNW visible
17 Sep 5.1 22:29:22 14° NE 22:29:22 14° NE 22:31:49 10° NNE visible
18 Sep 3.9 00:10:51 35° N 00:10:51 35° N 00:13:49 10° N visible
18 Sep 4.7 01:52:20 13° NW 01:52:20 13° NW 01:53:07 10° NW visible
18 Sep 5.3 22:10:08 10° NE 22:10:28 10° NE 22:10:58 10° NE visible
18 Sep 4.1 23:51:37 32° NNE 23:51:37 32° NNE 23:54:34 10° N visible
19 Sep 4.5 01:33:06 16° NW 01:33:06 16° NW 01:34:27 10° NW visible
19 Sep 4.4 23:32:22 28° NNE 23:32:22 28° NNE 23:35:14 10° N visible
20 Sep 4.4 01:13:51 20° NW 01:13:51 20° NW 01:15:36 10° NNW visible
20 Sep 4.6 23:13:08 23° NNE 23:13:08 23° NNE 23:15:49 10° N visible
21 Sep 4.3 00:54:36 23° NNW 00:54:36 23° NNW 00:56:36 10° NNW visible
21 Sep 4.9 22:53:53 18° NE 22:53:53 18° NE 22:56:18 10° N visible
